Regional Weather Roundup
Issued by NWS Charleston, SC

Current Version | Previous Version | Graphics & Text | Print | Product List | Glossary On
Versions: 1 2 3 4 5 6 7 8 9 10 11 12 13 14 15 16 17 18 19 20 21 22 23 24 25 26 27 28 29 30 31 32 33 34 35 36 37 38 39 40 41 42 43 44 45 46 47 48 49 50
000 ASUS42 KCHS 131628 RWRCHS REGIONAL WEATHER ROUNDUP NATIONAL WEATHER SERVICE CHARLESTON SC 1100 AM EST SAT FEB 13 2016 NOTE: "FAIR" INDICATES FEW OR NO CLOUDS BELOW 12,000 FEET WITH NO SIGNIFICANT WEATHER AND/OR OBSTRUCTIONS TO VISIBILITY. NOT ALL STATIONS ARE QUALITY CONTROLLED BY THE NATIONAL WEATHER SERVICE. USE DATA WITH CAUTION...ESPECIALLY DEWPOINT OBSERVATIONS. SCZ027-030-031-034>040-042>050-131700- ...SOUTHEAST SOUTH CAROLINA... CITY SKY/WX TMP DP RH WIND PRES REMARKS N CHARLESTON MOSUNNY 47 21 35 NE13 30.28S WATERFRONT PRK N/A 43 28 55 N9 30.13R MOUNT PLEASANT FAIR 45 25 45 NW9G18 30.29R JOHNS ISLAND FAIR 46 27 46 N9 30.29R PINOPOLIS N/A 39 23 52 N10 30.20F WCI 32 MONCKS CORNER FAIR 39 18 41 NE10 30.29S WCI 32 SUMMERVILLE FAIR 45 23 42 N14 30.30S BEAUFORT MCAS SUNNY 48 28 46 N10 30.30R BEAUFORT ARPT FAIR 45 28 53 NW12 30.29S HAZE HILTON HEAD IS SUNNY 45 30 57 N14G23 30.31R WALTERBORO SUNNY 46 21 36 N10G16 30.30F ALLENDALE FAIR 45 25 45 VRB7 30.29F ...SOUTHERN MIDLANDS AND PEE DEE... CITY SKY/WX TMP DP RH WIND PRES REMARKS GEORGETOWN FAIR 43 21 42 NW6G16 30.29S KINGSTREE FAIR 41 19 42 NW10G16 30.30S ORANGEBURG SUNNY 42 16 34 N8 30.30S BARNWELL FAIR 45 25 45 N6 30.31S AIKEN FAIR 39 19 45 NW6 30.33S WCI 35 MANNING FAIR 41 14 33 NW8 30.30S COLUMBIA MOSUNNY 42 12 29 NW12 30.30S SUMTER SUNNY 41 15 35 NW13 30.28R FLORENCE SUNNY 39 16 39 N12 30.30R WCI 32 MYRTLE BEACH NOT AVBL N MYRTLE BEACH SUNNY 40 16 37 NW10G18 30.27R WCI 33 $$ GAZ063-065-086>088-099>101-113>116-118-119-134>141-150-131700- ...SOUTHEAST GEORGIA... CITY SKY/WX TMP DP RH WIND PRES REMARKS SAVANNAH ARPT MOSUNNY 47 26 44 NW10 30.30S HUNTER AAF SUNNY 48 28 46 NW10 30.28R FORT STEWART SUNNY 48 24 39 NW10G21 30.29R STATESBORO SUNNY 48 18 30 NW14 30.31S SYLVANIA SUNNY 46 29 53 N7 30.32R CLAXTON FAIR 47 28 46 NW8 30.32S ...CSRA...CENTRAL AND FAR SOUTHEAST GEORGIA... CITY SKY/WX TMP DP RH WIND PRES REMARKS THOMSON SUNNY 44 20 37 NW7 30.36R AUGUSTA-BUSH SUNNY 44 19 36 N8 30.32S AUGUSTA-DANIEL SUNNY 42 18 37 NW8 30.31S SWAINSBORO FAIR 45 19 36 NW8 30.32S VIDALIA SUNNY 46 21 36 NW12 30.33S EASTMAN FAIR 46 18 32 N10G16 30.38R HAZLEHURST FAIR 49 19 31 N10 30.32S ALMA SUNNY 48 23 37 NW9 30.32S WAYCROSS SUNNY 54 26 33 N12G18 30.31F JESUP FAIR 52 27 37 NW10G16 30.30F BAXLEY FAIR 50 23 34 NW9 30.31F BRUNSWICK SUNNY 54 28 37 NW8 30.30S SAINT SIMONS SUNNY 50 24 36 NW9 30.29S $$ SCZ027-028-034-036>038-045-046-048>050-GAZ119-141-131700- ...LAKE AND SUPPLEMENTAL COASTAL OBSERVATIONS... STATION/POSITION TIME TEMP WIND PRES WAVE SWELL AIR SEA DIR/SP/G HT/PER HT/PER/DIR (UTC) (F) (DEG/KT/KT) (MB) (FT/S) (FT/S/D) WINYAH BAY 1500 40 350/ 7 1024.0R LAKE MURRAY 1500 38 320/ 3/ 10 1025.7R ACE BASIN NERRS 1545 46 350/ 4 1025.0S FORT PULASKI 1600 44 51 320/ 11/ 14 1026.1R SAPELO ISLAND 1600 50 350/ 9 1026.0R $$ ANZ835-935-AMZ111-154-330-350-352-354-370-450-454-472-131700- ...C-MAN AND BUOY OBSERVATIONS... STATION/POSITION TIME TEMP WIND PRES WAVE SWELL AIR SEA DIR/SP/G HT/PER HT/PER/DIR (UTC) (F) (DEG/KT/KT) (MB) (FT/S) (FT/S/D) BUOY 41004 1550 45 67 360/ 17/ 21 1024.0R 5/ 5 BUOY 41008 1550 45 53 350/ 16/ 19 1025.9R 3/ 5 FOLLY BEACH CMAN 1600 44 350/ 6/ 9 1025.4R CAPERS NEARSHORE 1508 41 20/ 14/ 19 1025.0R FRIPP NEARSHORE 1500 44 360/ 16/ 17 1024.4R STATION/POSITION TIME TEMP WIND PRES WAVE SWELL AIR SEA DIR/SP/G HT/PER HT/PER/DIR (UTC) (F) (DEG/KT/KT) (MB) (FT/S) (FT/S/D) 5E ST. MARYS GA 1521 56 N/A 3/ 4 FRYING PAN BUOY 1600 41 61 360/ 17/ 23 1024.3R BUOY 41025 1550 36 71 340/ 21/ 27 1022.7R 5/ 8 CAPE LOOKOUT NC NOT AVBL BUOY 41002 1550 58 68 310/ 19/ 25 N/A 10/10 7/250/10 BUOY 41010 1520 68 72 1022.2R ST AUGUSTINE FL 1600 52 57 360/ 15/ 16 1026.2R $$

USA.gov is the U.S. government's official web portal to all federal, state and local government web resources and services.